Погода в Могоче

Погода в Могоче : погода сейчас, прогноз погоды и архив. Всё, что Вы хотите узнать о погоде в Могоче!

Хотите узнать прогноз погоды в Могоче? Тогда Вам сюда: Погода в Могоче

Поиск расширенной информации на нашем сайте:

Другие новости

Новости СМИ2

Главная страница сайта

Новости сайта

03.07.2017

Напоминаем, что на нашем специализированном сайте Метеоцентр.Азия вы можете получить высокодетализированные автоматические прогнозы погоды по пунктам России, СНГ и мира в авиационном формате (включающие направление и скорость ветра, видимость, явления погоды, количество и форму облачности, нижнюю и верхнюю границу облачности).

Рекомендуем: предлагаются помещения продажа офиса в БЦ Eurasia Tower в деловом центре Москва Сити

Погода в Могоче - сегодня

Время (UTC), дата Ветер
(°,м/с) 
Видим.   Явления Облачность Т
(°С)
Тd
(°С)
f(%) Тe
(°С)
Pmin
(гПа)
dP
(гПа)
Po
(мм)
O2
(г/м3)
Тmin Tmax R s Состояние
почвы
03 21.09.17 080 (В) 20000 м    8/0 верхняя 
[Cs]
+14.3 +2.8 46 +14  999.3  -2.2  696  266           
06 21.09.17 070 (В) 20000 м    8/0 верхняя 
[Cs]
+17.9 +2.7 36 +18  995.9  -2.3  695  262           
09 21.09.17 070 (В) 20000 м    10/5 600 м кучево-дожд., средняя 
[Cb calv|Ac As]
+17.3 +2.7 38 +18  994.8  -1.2  694  262           
12 21.09.17 020 (С) 20000 м    10/10 600 м кучево-дожд. 
[Cb calv]
+15.1 +2.3 42 +16  995.1  -0.2  694  264    +18.2       
15 21.09.17 280 (З) 20000 м    10/10 600 м кучево-дожд. 
[Cb calv]
+8.3 +3 69 +7  996.3  -0.5  693  270           
18 21.09.17 280 (З) 20000 м    10/4 600 м кучево-дожд., верхняя 
[Cb calv|Cs]
+5.8 +1.9 76 +4  996.8  -0.2  693  273           
21 21.09.17 290 (З) 20000 м    10/4 600 м кучево-дожд., верхняя 
[Cb calv|Cs]
+5.5 +1.5 75 +4  997.2  0.3  693  273           
00 22.09.17 280 (З) 20000 м    10/9 1000 м верхняя 
[Cu Sc|Cs]
+6.5 +1.5 70 +5  994.9  -1.8  692  272  +5.1        влажная 
03 22.09.17 290 (З) 4000 м  слаб. ливневой дождь  10/10 600 м кучево-дожд. 
[Cb calv]
+5.6 +4.4 92 +5  995.7  0.5  692  273           
06 22.09.17 280 (З) 20000 м  в посл. час ливневой дождь  10/10 600 м кучево-дожд. 
[Cb calv]
+7 +5.9 93 +7  993.6  -1.6  691  270           
09 22.09.17 тихо ()   4000 м  слаб. ливневой дождь  10/10 600 м кучево-дожд. 
[Cb calv]
+7.6 +6.2 91 +8  993.1  -0.4  691  270           
12 22.09.17 тихо ()   20000 м  {ливн. осадки}  10/10 600 м кучево-дожд. 
[Cb calv]
+5.4 +4.5 94 +5  994.4  0.7  691  272    +8.2     
15 22.09.17 190 (Ю) 20000 м    10/10 600 м кучево-дожд. 
[Cb calv]
+4.8 +4 95 +6  994.7  0.2  692  273           
18 22.09.17 050 (СВ) н/о  слаб. ливневой дождь  10/10 600 м кучево-дожд. 
[Cb calv]
+5.1 +4.7 97 +6  994.6  692  273           
21 22.09.17 110 (В) 20000 м  {ливн. осадки}  10/10 600 м кучево-дожд. 
[Cb calv]
+5.1 +4.3 95 +5  994.9  0.3  692  273           
00 23.09.17 160 (Ю) 20000 м  {ливн. осадки}  10/10 600 м кучево-дожд. 
[Cb calv]
+5.4 +3.9 90 +6  996.6  1.6  693  273  +4.8      мокрая 
03 23.09.17 170 (Ю) 20000 м    8/8 600 м кучево-дожд. 
[Cb calv]
+7.8 +3 72 +7  997.3  1.2  694  271           
06 23.09.17 160 (Ю) 20000 м    10/10 600 м кучево-дожд. 
[Cb calv]
+6.2 +3.8 85 +5  999.3  1.5  695  273           
09 23.09.17 190 (Ю) 20000 м  слаб. ливневой дождь  10/10 600 м кучево-дожд. 
[Cb calv]
+6 +2.9 80 +5  1001.5  1.9  696  274           
12 23.09.17 210 (ЮЗ) 20000 м  в посл. час ливневой дождь  10/10 600 м кучево-дожд. 
[Cb calv]
+4.3 +1.7 83 +4  1003.8  1.7  698  276    +7.8  0.4     
15 23.09.17 230 (ЮЗ) 20000 м    10/10 600 м кучево-дожд. 
[Cb calv]
+4 -0.5 72 +3  1004.1  0.2  698  277           
18 23.09.17 230 (ЮЗ) 20000 м    10/10 600 м кучево-дожд. 
[Cb calv]
+2.9 -1.2 74 +4  1004.8  0.4  698  278           
21 23.09.17 250 (З) 20000 м    10/10 600 м кучево-дожд. 
[Cb calv]
+2.5 -1.2 77 +2  1005.9  0.9  699  279           
00 24.09.17 270 (З) 20000 м    9/9 1000 м кучево-дожд. 
[Cb calv]
+3.9 -1.1 70 +3  1006.4  0.8  699  278  +2.1        мокрая 
03 24.09.17 290 (З) 20000 м    9/9 1000 м кучево-дожд. 
[Cb calv]
+6.3 -0.2 63 +5  1006.9  1.1  700  276           
Время (UTC), дата Ветер
(°,м/с) 
Видим.   Явления Облачность Т
(°С)
Тd
(°С)
f(%) Тe
(°С)
Pmin
(гПа)
dP
(гПа)
Po
(мм)
O2
(г/м3)
Тmin Tmax R s Состояние
почвы

Для получения пояснительной информации подведите курсор к названию столбца.

ПОГОДА в Могоче - архив

Всё, что Вы хотите узнать о погоде в Могоче - удобно и подробно!

Выберите нужную дату (начиная с 1 января 2015* года) и нажмите кнопку "Найти".
Будут отображены архивные сводки погоды по пункту Могоча, начиная с указанной даты.


Отображать данные в формате CSV (для использования в таблицах Excel)


Внимание! Наш архив погоды предназначен исключительно для личного некоммерческого использования в познавательных целях. Если Вам необходимы официальные справки о состоянии погоды (для производственных, юридических, коммерческих и т.п. целей), обращайтесь в органы Росгидромета.

*Примечание: данная дата относится к архиву по метеостанциям СССР (Россия, СНГ, Балтия).
Архив по метеостанциям Зарубежной Европы и Азии (кроме Китая) хранится 10 дней, по другим регионам земного шара (Китай, Африка, Америка, Австралия, Океания) - 1 день.

Могоча - район местоположения метеостанции


Название, широта, долгота, высота метеостанции:
Могоча 53.8°ш. 119.7°д. 625 м над ур. моря [Российская Федерация]

Дополнительная информация

В oтличие oт бoльшинства пoгoдных сайтoв мы публикуем пoдрoбную метеoинфoрмацию в детальнoм прoфессиoнальнoм фoрмате.

Характеристики температуры и влажнoсти вoздуха измеряются на высoте 2 м в тени вдали oт зданий и деревьев.
Скoрoсть ветра измеряется на высoте 10 м (на урoвне рoста челoвека скoрoсть ветра ниже в 1.5-2 раза). Если метеoстанция нахoдится в гoрoде или в лесу, тo скoрoсть ветра занижена на 2-4 м/с пo сравнению с oткрытым местoм. Скoрoсть ветра над акватoриями крупных рек и oзёр, а также на вершинах хoлмoв на 2-5 м/с выше, чем в oбычных услoвиях.
Атмoсфернoе давление в разных тoчках местнoсти мoжет значительнo oтличаться oт давления на метеoстанции, в зависимoсти oт услoвий рельефа (при пoдъёме на 10 м давление пoнижается примернo на 1 мм рт.ст.).